KD2GO Weather Reports


Display with metric or nautical units.
time (UTC)temp
F
wind
direction
speed
MPH
gust
MPH
rain 1hr
in
rain 24hr
in
rain mn
in
humidity
%
barometer
mb
20260510201459 64 319 3.0 8.0 0.00 0.05 0.00 73 1013.3
20260510200001 65 301 4.0 10.0 0.00 0.05 0.00 74 1013.2
20260510194500 66 283 2.0 8.0 0.00 0.13 0.00 72 1013.4
20260510193000 66 311 4.0 10.0 0.00 0.13 0.00 70 1013.5
20260510191459 67 279 3.0 8.0 0.00 0.13 0.00 70 1013.3
20260510185958 68 306 4.0 8.0 0.00 0.24 0.00 67 1013.3
20260510184458 67 282 5.0 12.0 0.00 0.24 0.00 67 1013.5
20260510182959 68 293 4.0 13.0 0.00 0.24 0.00 64 1013.3
20260510181459 68 302 6.0 13.0 0.00 0.24 0.00 66 1013.5
20260510175959 68 352 6.0 12.0 0.00 0.32 0.00 66 1013.3
20260510174458 68 290 6.0 12.0 0.00 0.32 0.00 67 1013.4
20260510172958 69 301 6.0 16.0 0.00 0.32 0.00 66 1013.2
20260510171500 69 253 5.0 11.0 0.00 0.32 0.00 65 1013.1
20260510170001 69 259 7.0 14.0 0.00 0.32 0.00 64 1013.1
20260510164459 69 335 5.0 11.0 0.00 0.33 0.00 65 1013.0
20260510161459 67 262 4.0 9.0 0.00 0.33 0.00 72 1012.8
20260510155958 66 239 4.0 9.0 0.00 0.33 0.00 74 1013.0
20260510154459 66 309 2.0 7.0 0.00 0.33 0.00 77 1013.0
20260510152959 66 308 3.0 8.0 0.00 0.33 0.00 78 1013.0
20260510151459 64 319 1.0 6.0 0.00 0.33 0.00 83 1013.2
20260510144459 62 295 2.0 6.0 0.00 0.33 0.00 84 1013.1
20260510141458 59 132 2.0 6.0 0.00 0.33 0.00 40 1013.0
20260510135959 58 299 2.0 5.0 0.00 0.33 0.00 25 1012.9
20260510134458 56 158 2.0 3.0 0.00 0.33 0.00 24 1012.7
20260510132958 55 164 1.0 6.0 0.00 0.33 0.00 25 1012.8
20260510125957 54 131 1.0 4.0 0.00 0.33 0.00 25 1012.8
20260510124457 53 284 2.0 3.0 0.00 0.33 0.00 26 1013.1
20260510122957 53 283 1.0 3.0 0.00 0.33 0.00 26 1012.6
20260510115957 52 146 0.0 2.0 0.00 0.33 0.00 27 1012.1
20260510111457 50 344 2.0 3.0 0.00 0.33 0.00 28 1011.6
20260510104457 50 344 0.0 1.0 0.00 0.33 0.00 28 1011.6
20260510102957 49 83 0.0 3.0 0.00 0.33 0.00 29 1011.6
20260510101458 49 103 0.0 1.0 0.00 0.33 0.00 29 1011.4
20260510094458 50 103 0.0 2.0 0.00 0.33 0.00 29 1011.1
20260510092957 50 103 2.0 3.0 0.00 0.33 0.00 29 1011.1
20260510091458 50 277 0.0 1.0 0.00 0.33 0.00 29 1011.2
20260510085957 50 277 1.0 3.0 0.00 0.33 0.00 29 1011.3
20260510084458 50 277 1.0 3.0 0.00 0.33 0.00 29 1011.3
20260510081457 50 319 3.0 6.0 0.00 0.33 0.00 30 1011.5
20260510075957 49 303 3.0 7.0 0.00 0.33 0.00 30 1011.5
20260510074457 49 329 4.0 10.0 0.00 0.33 0.00 31 1011.5
20260510071457 49 310 0.0 0.0 0.00 0.33 0.00 32 1010.4
20260510065956 49 310 0.0 0.0 0.00 0.33 0.00 33 1010.6
20260510062957 50 310 0.0 2.0 0.00 0.33 0.00 33 1010.9
20260510061456 51 310 2.0 4.0 0.00 0.33 0.00 31 1011.1
20260510055957 51 121 1.0 2.0 0.00 0.33 0.00 31 1010.7
20260510054457 50 121 1.0 4.0 0.00 0.33 0.00 32 1010.5
20260510052957 50 121 1.0 3.0 0.00 0.33 0.00 34 1010.6
20260510051458 50 121 1.0 2.0 0.00 0.33 0.00 35 1010.6
20260510050000 50 121 1.0 2.0 0.00 0.33 0.00 37 1010.7
20260510044500 50 121 0.0 1.0 0.00 0.33 0.00 36 1010.9
20260510042959 50 121 0.0 0.0 0.00 0.33 0.00 41 1010.9
20260510041459 50 121 0.0 0.0 0.00 0.33 0.00 40 1010.7
20260510040005 50 121 0.0 0.0 0.00 0.33 0.00 40 1010.9
20260510034500 51 121 1.0 2.0 0.00 0.33 0.33 38 1010.9
20260510033001 50 121 0.0 0.0 0.00 0.33 0.33 42 1010.7
20260510031500 50 121 0.0 0.0 0.00 0.33 0.33 43 1010.6
20260510024501 51 121 0.0 1.0 0.00 0.33 0.33 42 1010.5
20260510023001 51 121 0.0 0.0 0.00 0.33 0.33 46 1010.5
20260510021501 51 121 0.0 1.0 0.00 0.33 0.33 47 1010.5
20260510020003 51 121 0.0 0.0 0.00 0.33 0.33 50 1010.5
20260510014500 51 121 0.0 0.0 0.00 0.33 0.33 50 1010.5
20260510012959 51 121 0.0 1.0 0.00 0.33 0.33 51 1010.5
20260510011500 51 121 1.0 2.0 0.00 0.33 0.33 53 1010.4
20260510010001 52 121 1.0 4.0 0.00 0.33 0.33 52 1010.3
20260510004459 52 121 2.0 3.0 0.00 0.33 0.33 54 1010.1
20260510001459 53 121 2.0 5.0 0.00 0.33 0.33 57 1009.6
20260509235959 53 107 3.0 4.0 0.00 0.33 0.33 61 1009.7
20260509234459 54 124 2.0 4.0 0.00 0.33 0.33 64 1009.7
20260509232959 54 72 1.0 5.0 0.00 0.33 0.33 68 1009.6
20260509231459 54 119 1.0 3.0 0.00 0.33 0.33 71 1009.6
20260509224500 55 110 2.0 3.0 0.00 0.33 0.33 79 1009.6
20260509223001 56 1 1.0 2.0 0.00 0.33 0.33 82 1009.6
20260509221501 55 348 0.0 2.0 0.00 0.33 0.33 80 1009.6
20260509220000 55 326 0.0 1.0 0.01 0.33 0.33 81 1009.5
20260509214459 55 326 1.0 2.0 0.01 0.33 0.33 79 1009.5
20260509212959 55 359 2.0 6.0 0.01 0.33 0.33 76 1009.6
20260509211459 55 289 3.0 8.0 0.02 0.33 0.33 73 1009.8
20260509210002 55 283 2.0 5.0 0.04 0.32 0.32 53 1009.8
20260509203000 53 314 0.0 1.0 0.08 0.32 0.32 60 1009.7